SCP
0 0 0 0 0 0 0 0 0 0 0 0 0 0 0 0 0 0 0 0 0 0 0 0 0 0 0 0 0 0 0 0 0 0 0 0 0 0 0 0 0 0 0 0 0 0 0 0 0
0 0 0 0 0 0 0 0 0 0 0 0 0 0 0 0 0 0 0 0 0 0 0 0 0 0 0 0 0 0 0 0 0 0 0 0 0 0 0 0 0 0 0 0 0 0 0 0 0
0 0 0 0 0 0 0 0 0 0 0 0 0 0 0 0 0 0 0 0 0 0 0 0 0 0 0 0 0 0 0 0 0 0 0 0 0 0 0 0 0 0 0 0 0 0 0 0 0
0 0 0 0 0 0 0 0 0 0 0 0 0 0 0 0 0 0 0 0 0 0 0 0 0 0 0 0 0 0 0 0 0 0 0 0 0 0 0 0 0 0 0 0 0 0 0 0 0
0 0 0 0 0 0 0 0 0 0 0 0 0 0 0 0 0 0 0 0 0 0 0 0 0 0 0 0 0 0 0 0 0 0 0 0 0 0 0 0 0 0 0 0 0 0 0 0 0
0 0 0 0 0 0 0 0 0 0 0 0 0 0 0 0 0 0 0 0 0 0 0 0 0 0 0 0 0 0 0 0 0 0 0 0 0 0 0 0 0 0 0 0 0 0 0 0 0
0 0 0 0 0 0 0 0 0 0 0 0 0 0 0 0 0 0 0 0 0 0 0 0 0 0 0 0 0 0 0 0 0 0 0 0 0 0 0 0 0 0 0 0 0 0 0 0 0
0 0 0 0 0 0 -0 -0 0 0 0 0 0 0 0 0 0 0 0 0 0 0 0 0 0 0 0 0 0 0 0 0 0 0 0 0 0 0 0 0 0 0 0 0 0 0 0 0 0
0 0 0 0 0 0 0 0 0 0 0 0 0 0 0 0 0 0 0 0 0 0 0 0 0 0 0 0 0 0 0 0 0 0 0 0 0 0 0 0 0 0 0 0 0 0 0 0 0
0 0 0 0 0 0 0 0 0 0 0 0 0 0 0 0 0 0 0 0 0 0 0 0 0 0 0 0 0 0 0 0 0 0 0 0 0 0 0 0 0 0 0 0 0 0 0 0 0
0 0 0 0 0 0 0 0 0 0 0 0 0 0 0 0 0 0 0 0 0 0 0 0 0 0 0 0 0 0 0 0 0 0 0 0 0 0 0 0 0 0 0 0 0 0 0 0 0
0 0 0 0 0 0 0 0 0 0 0 0 0 0 0 0 0 0 0 0 0 0 0 0 0 0 0 0 0 0 0 0 0 0 0 0 0 0 0 0 0 0 0 0 0 0 0 0 0
0 0 0 0 0 0 0 0 0 0 0 0 0 0 0 0 0 0 0 0 0 0 0 0 0 0 0 0 0 0 0 0 0 0 0 0 0 0 0 0 0 0 0 0 0 0 0 0 0
0 0 0 0 0 0 0 0 0 0 0 0 0 0 0 0 0 0 0 0 0 0 0 0 0 0 0 0 0 0 0 0 0 0 0 0 0 0 0 0 0 0 0 0 0 0 0 0 0
0 0 0 0 0 0 0 0 0 0 0 0 0 0 0 0 0 0 0 0 0 0 0 0 0 0 0 0 0 0 0 0 0 0 0 0 0 0 0 0 0 0 0 0 0 0 0 0 0
0 0 0 0 0 0 0 0 0 0 0 0 0 0 0 0 0 0 0 0 0 0 0 0 0 0 0 0 0 0 0 0 0 0 0 0 0 0 0 0 0 0 0 0 0 0 0 0 0
0 0 0 0 0 0 0 0 0 0 0 0 0 0 0 0 0 0 0 0 0 0 0 0 0 0 0 0 0 0 0 0 0 0 0 0 0 0 0 0 0 0 0 0 0 0 0 0 0
0 0 0 0 0 0 0 0 0 0 0 0 0 0 0 0 0 0 0 0 0 0 0 0 0 0 0 0 0 0 0 0 0 0 0 0 0 0 0 0 0 0 0 0 0 0 0 0 0
0 0 0 0 0 0 0 0 0 0 0 0 0 0 0 0 0 0 0 0 0 0 0 0 0 0 0 0 0 0 0 0 0 0 0 0 0 0 0 0 0 0 0 0 0 0 0 0 0
0 0 0 0 0 0 0 0 0 0 0 0 0 0 0 0 0 0 0 0 0 0 0 0 0 0 0 0 0 0 0 0 0 0 0 0 0 0 0 0 0 0 0 0 0 0 0 0 0
0 0 0 0 0 0 0 0 0 0 0 0 0 0 0 0 0 -0 -0 0 0 0 0 0 0 0 0 0 0 0 0 0 0 0 0 0 0 0 0 0 0 0 0 0 0 0 0 0 0
0 0 0 0 0 0 0 0 0 0 0 0 0 0 0 0 0 -0 -0 -0 -0 0 0 0 0 0 0 0 0 0 0 0 0 0 0 0 0 0 0 0 0 0 0 0 0 0 0 0 0
0 0 0 0 0 0 0 0 0 0 0 0 0 0 0 0 0 0 -0 -0 -0 0 0 0 0 0 0 0 0 0 0 0 0 0 0 0 0 0 0 0 0 0 0 0 0 0 0 0 0
0 0 0 0 0 0 0 0 0 0 0 0 0 0 0 0 0 0 0 0 -0 0 0 0 0 0 0 0 0 0 0 0 0 0 0 0 0 0 0 0 0 0 0 0 0 0 0 0 0
0 0 0 0 0 0 0 0 0 0 0 0 0 0 0 0 0 0 0 0 0 0 0 0 0 0 0 0 0 0 0 0 0 0 0 0 0 0 0 0 0 0 0 0 0 0 0 0 0
0 0 0 0 0 0 0 0 0 0 0 0 0 0 0 0 0 0 0 0 0 0 0 0 0 0 0 0 0 0 0 0 0 0 0 0 0 0 0 0 0 0 0 0 0 0 0 0 0
0 0 0 0 0 0 0 0 0 0 0 0 0 0 0 0 0 0 0 0 0 0 0 0 0 0 0 0 0 0 0 0 0 0 0 0 0 0 0 0 0 0 0 0 0 0 0 0 0
0 0 0 0 0 0 0 0 0 0 0 0 0 0 0 0 0 0 0 0 0 0 0 0 0 0 0 0 0 0 0 0 0 0 0 0 0 0 0 0 0 0 0 0 0 0 0 0 0
0 0 0 0 0 0 0 0 0 0 0 0 0 0 0 0 0 0 0 0 0 0 0 0 0 0 0 0 0 0 0 0 0 0 0 0 0 0 0 0 0 0 0 0 0 0 0 0 0
0 0 0 0 0 0 0 0 0 0 0 0 0 0 0 0 0 0 0 0 0 0 0 0 0 0 0 0 0 0 0 0 0 0 0 0 0 0 0 0 0 0 0 0 0 0 0 0 0
Wind_Speed
5 3 2 3 3 3 4 2 2 3 2 1 0 1 1 1 2 3 4 3 2 4 5 5 3 4 5 6 6 6 6 6 6 6 6 6 6 6 6 6 7 7 8 9 9 9 10 10 10
3 2 2 2 5 5 4 3 4 2 2 2 1 1 1 1 2 3 2 2 2 4 4 4 3 5 5 6 6 6 6 6 6 5 6 6 6 6 6 6 7 7 8 9 9 9 10 10 10
1 2 1 3 4 5 2 2 2 1 1 2 1 0 1 1 1 1 2 2 2 3 4 4 3 4 5 5 6 5 5 5 5 5 6 6 6 5 5 6 7 7 8 9 9 9 9 10 9
2 2 2 4 6 4 3 1 2 3 2 1 1 2 1 2 1 1 2 3 3 3 3 5 3 4 4 5 5 5 5 5 5 5 5 5 5 5 5 6 6 7 8 8 9 9 9 9 9
1 2 4 4 5 3 3 2 3 4 3 1 2 2 1 1 1 2 2 3 3 3 3 5 3 3 4 4 4 4 5 5 5 5 4 5 5 5 5 5 6 7 7 8 8 8 9 8 8
2 2 5 6 5 3 2 2 4 4 3 1 2 3 1 1 1 2 2 2 3 3 3 4 4 3 3 3 3 4 4 4 5 5 4 4 4 5 5 6 6 7 7 8 8 8 9 8 8
2 3 4 5 4 4 2 2 4 4 4 3 2 3 2 2 0 1 2 2 2 2 3 3 4 4 3 3 3 3 4 4 5 5 4 5 5 5 5 5 6 7 7 8 8 8 8 8 8
1 2 3 4 6 4 1 2 2 4 3 1 3 4 2 1 0 2 3 3 3 2 2 2 2 3 4 4 3 3 3 4 5 5 5 5 5 5 5 5 6 6 7 8 8 7 8 8 8
2 4 5 5 5 2 2 3 1 2 2 2 2 2 3 1 2 3 3 3 2 2 2 2 2 2 3 3 3 3 3 4 4 4 5 4 4 4 4 5 6 7 7 8 8 7 8 7 7
3 5 4 2 2 2 3 4 2 3 5 4 3 2 1 1 3 4 4 4 3 3 3 3 3 3 3 2 3 3 3 3 3 3 4 3 3 3 3 6 6 7 7 7 7 6 6 4 3
2 4 2 2 2 3 3 4 3 6 6 5 5 4 2 3 4 4 4 4 4 3 3 3 3 3 3 2 2 1 1 2 3 3 3 3 3 3 3 2 3 4 4 3 4 3 2 3 2
2 2 3 3 2 3 4 4 5 7 6 4 4 3 3 4 5 5 5 4 4 3 3 2 3 3 3 3 2 2 2 2 2 3 3 3 2 3 2 2 2 2 1 2 2 2 3 3 3
3 2 2 3 3 4 4 6 6 7 6 3 2 3 4 5 5 5 4 4 4 4 3 3 3 4 3 3 2 2 2 2 3 3 3 4 3 3 2 2 1 1 1 2 2 2 3 3 3
1 2 3 4 3 3 4 6 6 8 5 4 4 4 4 4 5 5 4 4 4 4 4 3 3 3 4 3 3 3 2 2 3 3 3 4 3 3 3 3 2 1 1 1 2 2 2 2 2
1 2 4 3 3 2 4 8 8 6 4 5 5 5 5 4 4 4 4 4 4 4 3 3 3 3 4 4 4 3 2 3 3 3 3 4 3 3 3 2 2 2 2 2 2 2 2 2 2
2 3 4 1 2 2 5 10 4 2 4 6 6 6 5 4 4 3 3 3 3 3 3 2 2 3 3 4 4 3 3 3 3 3 3 3 3 3 3 3 2 2 2 2 2 2 2 2 2
2 5 7 4 1 2 5 10 5 3 5 7 7 6 5 4 3 3 3 3 2 2 2 2 2 3 3 3 3 3 3 3 3 2 2 3 3 3 3 2 2 3 2 2 2 2 2 2 2
5 6 7 7 2 3 8 13 10 6 6 8 7 6 5 5 4 3 3 3 2 1 1 1 2 2 2 2 2 2 3 3 3 2 2 3 3 4 3 2 3 3 2 2 2 2 2 2 2
5 7 10 8 5 6 11 15 14 9 8 9 7 6 5 5 4 2 2 1 1 1 0 0 1 2 2 2 2 2 3 3 3 2 3 3 3 4 4 3 3 3 3 3 3 3 3 2 2
5 8 9 7 4 6 10 15 14 9 8 8 7 6 5 4 3 2 2 1 1 1 1 1 1 0 1 1 2 2 2 2 2 2 3 3 3 3 3 4 3 3 3 3 3 3 2 2 2
7 9 9 8 7 5 9 12 9 5 5 6 6 5 5 4 4 3 2 2 2 2 2 1 1 1 1 1 2 2 2 2 2 2 2 2 2 3 3 3 3 3 3 3 4 4 4 3 3
7 5 6 7 7 5 4 9 7 5 6 5 4 4 4 4 3 3 2 2 2 2 1 1 1 0 0 1 2 3 3 2 2 1 2 2 2 2 3 3 3 3 3 3 4 4 3 4 4
3 3 5 6 6 7 6 8 9 4 7 5 4 3 3 2 2 2 2 2 2 1 1 1 0 0 0 1 2 3 2 1 1 2 3 2 2 2 2 3 3 3 3 3 4 4 4 3 4
1 1 1 2 3 7 7 9 9 4 5 4 3 2 2 2 2 2 2 1 1 2 1 1 0 0 0 1 1 2 2 2 2 2 2 2 1 1 1 2 3 3 3 4 4 4 4 4 4
2 2 2 3 4 6 2 7 9 4 3 4 4 3 2 1 1 1 1 1 1 2 2 1 1 1 1 2 2 2 2 3 3 2 2 2 2 1 2 2 2 2 3 3 3 4 4 4 4
5 5 4 5 6 5 4 9 6 2 2 3 3 3 2 1 2 2 2 2 1 2 2 2 1 1 1 1 2 2 2 2 2 2 2 2 2 2 2 2 2 2 2 3 3 3 4 3 4
4 5 3 3 3 6 7 7 7 3 3 2 2 1 1 1 2 2 2 2 2 2 2 2 2 1 1 1 1 2 2 2 2 1 1 1 1 1 2 2 2 2 2 2 3 3 4 4 4
3 3 3 4 5 8 8 8 6 3 3 2 1 1 1 2 2 2 2 2 2 2 2 2 2 2 2 1 1 1 1 1 1 1 1 1 1 1 2 2 3 2 2 3 3 2 3 4 4
5 4 5 4 4 6 8 7 2 4 2 2 3 3 2 3 3 2 2 2 2 2 2 1 2 1 1 1 1 1 1 1 1 1 1 1 1 1 2 2 2 3 3 3 3 3 3 4 4
5 7 7 6 7 7 8 10 0 3 2 2 3 3 3 4 3 3 2 2 2 2 2 2 2 1 1 1 0 0 0 0 1 1 1 2 1 1 2 2 2 3 3 3 3 3 3 4 4
Wind_Direction
328 321 264 229 214 224 231 201 205 170 165 103 54 245 238 281 315 58 75 111 115 150 155 155 147 137 132 132 129 125 123 123 123 120 118 113 108 109 114 115 117 116 111 105 99 93 92 91 89
332 305 235 226 233 226 216 192 201 193 110 126 145 224 217 154 23 59 108 118 138 152 155 156 136 139 134 136 137 135 134 131 130 127 123 117 111 107 111 119 120 119 115 109 102 97 95 94 91
308 313 245 211 229 242 210 164 189 135 139 199 167 265 308 32 72 96 86 143 154 152 155 137 127 138 139 140 143 141 141 138 134 133 129 124 119 115 108 118 126 123 117 112 105 100 98 95 93
248 191 208 230 226 240 260 181 168 178 167 203 221 176 149 24 10 56 115 153 156 156 156 140 129 132 137 141 146 146 148 146 140 137 132 129 124 120 114 114 124 123 117 112 106 104 100 97 96
242 225 211 226 236 234 249 268 211 216 207 189 243 230 190 106 54 108 139 150 156 157 157 148 126 131 134 140 148 148 148 151 146 137 131 130 124 116 111 112 116 117 116 112 108 105 100 94 92
184 220 228 233 231 226 230 229 222 229 228 233 263 255 210 98 122 127 141 153 158 155 154 151 128 118 128 133 139 147 145 140 139 134 127 122 120 111 105 106 113 113 114 113 108 104 101 97 92
225 223 241 242 237 237 224 217 234 233 227 234 258 242 183 161 79 150 156 150 142 143 152 155 160 153 131 113 119 127 126 124 121 120 117 107 101 101 98 99 111 112 110 110 107 105 102 97 91
278 214 218 225 230 236 195 213 258 258 260 285 233 239 223 132 116 162 155 149 141 146 159 167 171 171 171 163 130 120 117 117 113 106 102 102 103 101 95 99 101 109 109 106 103 102 102 96 90
232 228 231 225 226 224 185 223 234 282 235 221 220 278 352 70 153 167 171 163 158 161 172 179 181 182 182 175 148 142 126 115 118 114 105 121 137 131 118 97 91 99 103 103 105 103 99 97 93
220 235 241 246 244 244 228 246 246 229 236 234 226 247 324 160 179 190 195 194 195 193 191 185 187 188 186 174 165 163 159 150 152 147 145 146 136 117 104 89 83 86 90 96 92 97 110 114 112
212 240 235 241 252 262 250 256 250 246 249 248 255 252 234 210 207 213 214 214 216 216 207 195 192 189 184 174 172 160 158 155 157 155 149 140 131 124 121 118 110 106 106 109 106 115 121 111 100
199 240 255 261 272 257 251 254 250 246 264 299 276 244 224 224 223 223 224 227 226 220 220 221 207 191 188 181 174 166 164 161 156 153 155 149 142 139 135 128 128 129 124 122 119 111 99 100 97
213 236 258 272 272 267 260 251 260 255 265 276 268 239 235 236 237 237 238 238 236 230 228 223 218 202 190 187 184 174 179 173 161 154 157 156 151 147 140 140 143 137 136 138 128 119 110 100 89
224 251 275 281 265 258 261 266 254 258 264 259 259 252 246 249 253 250 243 240 240 234 230 225 215 208 194 190 185 178 183 177 165 157 155 161 158 155 154 151 152 143 144 142 135 129 120 109 98
195 263 273 267 271 270 271 262 243 264 252 251 258 262 261 264 268 263 255 248 247 241 235 227 219 205 197 193 189 181 187 182 166 158 156 158 157 157 156 153 154 150 149 145 133 125 122 112 103
225 241 260 261 287 271 257 267 277 293 251 257 263 265 264 267 271 281 283 266 263 251 234 224 213 205 196 196 191 188 188 181 171 162 155 155 155 158 157 156 158 151 150 151 144 144 137 127 119
223 262 270 279 268 274 247 270 291 303 270 267 267 264 265 271 279 291 297 285 263 254 233 220 212 208 194 193 190 189 185 178 173 163 158 156 158 159 158 159 156 154 151 154 153 153 153 145 138
255 264 268 268 291 274 260 267 279 278 269 267 267 265 263 266 276 291 297 297 282 259 241 212 204 203 188 176 183 187 178 175 173 167 162 160 159 160 162 158 160 158 153 154 158 154 153 154 142
261 262 272 282 301 282 269 275 279 277 266 265 264 260 259 268 281 295 305 300 301 299 285 239 191 188 177 169 181 192 181 172 168 164 166 170 163 161 167 164 163 161 165 167 164 157 155 147 155
248 262 274 288 302 282 284 280 276 267 257 258 260 258 261 272 289 303 308 291 278 276 270 251 247 225 189 194 186 198 175 174 165 159 163 171 172 168 172 175 168 169 170 170 167 163 168 161 180
254 256 272 286 309 273 289 278 256 249 248 257 257 257 259 261 267 275 276 276 282 286 281 276 295 270 204 178 176 165 165 157 162 164 167 168 172 170 173 179 171 175 176 179 182 181 180 181 185
260 267 272 278 282 278 286 287 273 261 266 259 258 250 254 262 266 267 264 264 266 278 290 284 272 285 205 179 182 175 174 169 169 167 158 157 160 168 177 178 174 178 183 187 189 193 194 192 194
268 317 276 271 265 272 247 258 273 269 267 261 256 255 266 275 275 279 273 274 288 305 301 291 254 143 196 195 179 168 175 172 158 152 142 139 144 167 177 182 182 184 188 192 192 195 197 202 209
200 328 298 240 238 253 239 239 270 246 256 275 277 277 301 321 328 326 325 316 326 334 325 319 256 226 190 179 172 165 169 170 158 163 156 156 158 159 172 183 187 191 194 198 199 199 200 203 210
198 227 265 248 235 251 206 240 258 264 266 286 301 302 315 329 315 313 325 326 327 321 315 298 258 258 232 188 179 168 177 185 186 184 179 177 181 184 197 189 188 193 197 200 202 202 208 210 211
213 226 235 258 267 279 236 245 260 291 301 303 301 307 322 325 303 293 294 299 310 301 291 282 256 259 261 223 194 176 179 188 200 202 193 191 195 198 200 194 196 195 194 196 196 203 211 213 216
199 223 264 266 289 273 254 261 273 251 269 276 296 329 318 309 306 297 301 310 312 300 285 268 250 255 270 250 218 188 188 193 196 202 198 200 196 198 200 193 195 195 197 194 197 205 207 209 216
258 196 190 216 251 264 265 259 257 236 241 243 243 252 276 301 299 303 307 310 313 306 297 287 272 257 255 238 219 209 204 209 207 203 203 216 210 203 204 197 198 195 200 203 199 209 216 215 219
184 198 220 226 249 255 271 264 231 226 229 223 232 245 270 277 276 283 303 307 310 320 317 312 301 295 288 264 229 208 223 236 225 220 224 226 223 214 213 214 208 206 205 209 211 215 221 225 229
228 221 206 226 242 246 264 269 136 236 260 269 258 264 278 270 263 268 285 298 312 313 310 314 310 308 318 307 242 229 247 241 236 244 246 233 226 225 224 222 221 220 217 217 220 225 226 227 230